AO-07 1 07530U 74089B 26253.99485374 -.00000028 00000-0 11364-3 0 9999 2 07530 101.9921 268.1387 0012071 329.0349 45.1796 12.53699541371273 UO-11 1 14781U 84021B 26253.79383767 .00001123 00000-0 11932-3 0 9990 2 14781 97.8161 218.4675 0006035 259.7343 100.3195 14.90981836269886 LO-19 1 20442U 90005G 26254.06651549 .00000056 00000-0 36575-4 0 9992 2 20442 98.8827 278.2280 0010762 318.3751 41.6613 14.34143052914708 AO-27 1 22825U 93061C 26254.14545444 .00000052 00000-0 36722-4 0 9999 2 22825 98.6803 321.4941 0007959 200.8999 159.1860 14.30960432719296 FO-29 1 24278U 96046B 26253.99928147 -.00000018 00000-0 19109-4 0 9999 2 24278 98.5172 91.1073 0349044 233.6469 123.1989 13.53277838484775 GO-32 1 25397U 98043D 26253.54967275 .00000030 00000-0 33348-4 0 9991 2 25397 99.0148 248.4916 0001240 22.6578 337.4655 14.24442144463488 ISS 1 25544U 98067A 26254.17569693 .00004925 00000-0 97240-4 0 9991 2 25544 51.6305 234.5133 0004993 127.7196 232.4246 15.49076359585089 NO-44 1 26931U 01043C 26253.99847488 .00000055 00000-0 51606-4 0 9996 2 26931 67.0523 22.3179 0005734 272.0990 87.9456 14.31982525302732 SO-50 1 27607U 02058C 26253.65485524 .00000670 00000-0 96660-4 0 9998 2 27607 64.5511 224.5159 0072222 246.8033 112.5455 14.83203997277134 CO-55 1 27844U 03031E 26253.59778941 .00000190 00000-0 10131-3 0 9999 2 27844 98.6771 261.0963 0008527 301.7451 58.2897 14.24379248203834 RS-22 1 27939U 03042A 26254.32705183 .00000825 00000-0 13487-3 0 9998 2 27939 98.3479 81.1434 0011389 2.2835 121.8938 14.73595832228231 CO-65 1 32785U 08021C 26254.27371260 .00003000 00000-0 18794-3 0 9998 2 32785 97.8368 237.5708 0010586 94.9728 265.2709 15.10136404998180 CO-66 1 32791U 08021J 26254.23354180 .00014648 00000-0 42743-3 0 9994 2 32791 97.7561 256.4434 0003446 48.9916 311.1624 15.35447873 477 RS-30 1 32953U 08025A 26254.29051486 .00000086 00000-0 54867-3 0 9998 2 32953 82.5038 301.8906 0020640 122.5099 237.7979 12.43182880830391 SRMSAT 1 37841U 11058D 26254.03014793 .00000364 00000-0 53707-4 0 9993 2 37841 19.9714 259.8736 0011967 68.9880 314.4614 14.11591615769963 ZACUBE-1 1 39417U 13066B 26254.31152150 .00004007 00000-0 30722-3 0 9995 2 39417 97.8125 217.0852 0040171 325.1417 34.7177 15.01777002693657 Delfi-N3xt 1 39428U 13066N 26254.01883125 .00003843 00000-0 33056-3 0 9997 2 39428 97.8300 174.2855 0071281 281.5173 77.8050 14.96052955687456 GOMX-1 1 39430U 13066Q 26254.31750777 .00001492 00000-0 22841-3 0 9997 2 39430 97.6441 89.3521 0128319 160.0324 200.5972 14.69684151682567 LO-74 1 39440U 13066AA 26253.79039689 .00002449 00000-0 22637-3 0 9997 2 39440 97.8971 203.1916 0058466 103.0500 257.7255 14.94240278689774 AO-73 1 39444U 13066AE 26254.20221962 .00005518 00000-0 33431-3 0 9999 2 39444 97.8371 227.5544 0033532 271.0585 88.6802 15.10551315692640 DTUSAT-2 1 40030U 14033W 26253.54295178 .00005021 00000-0 26540-3 0 9995 2 40030 98.0911 256.7779 0006348 312.8095 47.2602 15.15976161665616 LILACSAT-2 1 40908U 15049K 26254.30102170 .00014374 00000-0 22241-3 0 9996 2 40908 97.4566 294.5468 0004605 304.8751 55.2069 15.54166880609119 Lapan A3 1 41603U 16040E 26254.26785796 .00002537 00000-0 80334-4 0 9993 2 41603 97.1559 247.6465 0012015 70.5068 289.7472 15.33575772568004 CAS-2T 1 41847U 16066G 26254.18492080 .00000700 00000-0 10784-3 0 9994 2 41847 98.3759 328.9322 0340353 228.4500 128.7044 14.44834780517210 TechnoSat 1 42829U 17042E 26254.20692236 .00001694 00000-0 12196-3 0 9990 2 42829 97.4389 48.6757 0018101 155.4830 204.7262 15.05381076499642 AO-91 1 43017U 17073E 26254.10357527 .00007160 00000-0 30397-3 0 9991 2 43017 97.4565 119.5640 0148355 32.2345 328.7848 15.13854575478388 S-Net D 1 43186U 18014G 26254.14427144 .00003816 00000-0 19443-3 0 9994 2 43186 97.5261 158.3930 0009880 82.1408 278.0946 15.17350940471790 S-Net B 1 43187U 18014H 26254.15747158 .00003696 00000-0 18854-3 0 9997 2 43187 97.5266 158.3950 0010464 78.0861 282.1545 15.17318336471799 S-Net A 1 43188U 18014J 26254.20862529 .00003777 00000-0 19240-3 0 9994 2 43188 97.5276 158.6715 0010371 78.6814 281.5584 15.17360017471805 S-Net C 1 43189U 18014K 26254.16187234 .00003650 00000-0 18627-3 0 9991 2 43189 97.5293 158.7127 0011638 72.1049 288.1453 15.17308510470345 Ten-Koh 1 43677U 18084G 26253.99987058 .00001152 00000-0 89987-4 0 9995 2 43677 98.0744 89.9938 0009237 179.5613 180.5621 15.03236078429058 PO-101 1 43678U 18084H 26254.32181126 .00001160 00000-0 96678-4 0 9990 2 43678 98.1181 94.3222 0011264 239.8632 120.1475 15.00717499429139 QO-100 1 43700U 18090A 26254.23015821 .00000126 00000-0 00000-0 0 9992 2 43700 0.0167 136.4305 0002550 68.4131 254.0558 1.00273109 28537 MinXSS-2 1 43758U 18099A 26254.02598923 .00037833 00000-0 60686-3 0 9994 2 43758 97.4462 333.1703 0005116 307.7214 52.3574 15.52964161427423 AO-95 1 43770U 18099N 26254.15316054 .00008222 00000-0 30012-3 0 9995 2 43770 97.4300 314.1431 0009359 52.1184 308.0900 15.28348791426347 SNUSat 2 1 43782U 18099AA 26254.10614227 .00005798 00000-0 24935-3 0 9998 2 43782 97.3978 306.2003 0009770 4.2416 355.8902 15.22989142426101 SnugLite 1 43784U 18099AC 26254.12687796 .00008267 00000-0 29801-3 0 9994 2 43784 97.3787 307.6223 0002597 22.4014 337.7339 15.28793994426440 ITASat 1 1 43786U 18099AE 26254.08980792 .00005127 00000-0 24074-3 0 9992 2 43786 97.3946 303.9041 0013590 57.2937 302.9607 15.19983782425954 EAGLET 1 1 43790U 18099AJ 26254.08280374 .00003151 00000-0 17936-3 0 9990 2 43790 97.4151 301.4698 0012274 54.3834 305.8539 15.13487560425325 ESEO 1 43792U 18099AL 26254.05177442 .00001506 00000-0 11170-3 0 9996 2 43792 97.3907 287.7464 0012869 45.0656 315.1613 15.04454934424719 JO-97 1 43803U 18099AX 26253.69178427 .00013137 00000-0 37460-3 0 9995 2 43803 97.4053 316.9398 0004344 338.7949 21.3114 15.36182334426746 Suomi 100 1 43804U 18099AY 26254.24618361 .00008729 00000-0 30080-3 0 9996 2 43804 97.4107 314.3904 0008776 344.1761 15.9204 15.30219729426571 ISAT 1 43879U 18111D 26253.76930200 .00374791 55958-4 11081-2 0 9998 2 43879 97.5796 196.9516 0007473 125.5622 234.6350 15.92519069424647 UWE-4 1 43880U 18111E 26254.27719400 .00033388 00000-0 56523-3 0 9993 2 43880 97.5819 186.9680 0007803 34.7611 325.4149 15.51461238424107 Prox-1 1 44339U 19036A 26254.29164779 .00009381 00000-0 86575-3 0 9991 2 44339 23.9937 258.2420 0004956 317.4178 42.5937 14.92409781386345 Taurus 1 1 44530U 19059C 26254.27023264 .00002106 00000-0 33765-3 0 9991 2 44530 98.6491 64.5366 0009143 46.8433 313.3535 14.72854485371316 TO-108 1 44881U 19093C 26254.26882765 .00000234 00000-0 32352-4 0 9998 2 44881 97.7468 324.3741 0013780 157.7769 202.4047 14.86627032364206 RS-44 1 44909U 19096E 26254.00244108 .00000034 00000-0 98849-4 0 9998 2 44909 82.5178 282.6853 0216522 303.9052 54.1622 12.79749270313323 SALSAT 1 46495U 20068K 26253.60538708 .00005584 00000-0 18986-3 0 9996 2 46495 97.8883 261.9585 0009620 13.6942 346.4557 15.30869248328420 CSS (TIANHE-1) 1 48274U 21035A 26254.19133035 .00017939 00000-0 22085-3 0 9999 2 48274 41.4684 159.8628 0002598 270.5901 89.4639 15.59805334306596 TeikyoSat 4 1 49396U 21102B 26254.02334493 .00001442 00000-0 92995-4 0 9993 2 49396 97.3634 280.1655 0012021 5.9343 354.2027 15.09762012265674 Z-Sat 1 49399U 21102E 26254.32142519 .00002756 00000-0 13523-3 0 9993 2 49399 97.3270 287.0368 0015013 311.0166 48.9770 15.18830511266514 KOSEN 1 1 49402U 21102H 26254.09519679 .00005070 00000-0 18861-3 0 9999 2 49402 97.3116 294.6138 0011540 261.6936 98.2995 15.27893509267135 HO-113 1 50466U 21131B 26254.27116410 .00000337 00000-0 11750-3 0 9990 2 50466 98.4978 346.1925 0003843 182.9797 177.1369 14.41422539247517 SNUGLITE 2 1 52899U 22065F 26253.37183968 .00000649 00000-0 13172-3 0 9997 2 52899 98.2325 38.1172 0008636 113.3547 246.8565 14.64478740223461 UmKA 1 (RS40S) 1 57172U 23091G 26254.26217642 .00004215 00000-0 18933-3 0 9995 2 57172 97.4968 312.6390 0012701 171.7206 188.4242 15.21643309177093 CubeBel-2 (EU11S) 1 57175U 23091K 26254.24532817 .00009251 00000-0 31090-3 0 9994 2 57175 97.4970 318.3096 0009916 161.7036 198.4563 15.31012107177464 RS-38S 1 57189U 23091Z 26254.26401075 .00013853 00000-0 36610-3 0 9998 2 57189 97.5020 325.5956 0008074 119.1264 241.0790 15.38514125177916 SONATE-2 1 59112U 24043Q 26253.40736012 .00048410 00000-0 48390-3 0 9996 2 59112 97.5606 49.5142 0005210 241.9653 118.1079 15.65452036141196 GRBBeta 1 60237U 24128C 26254.08556380 .00002058 00000-0 14948-3 0 9993 2 60237 61.9884 274.7692 0028143 153.5107 206.7432 15.07154905119218 Curium One 1 60242U 24128H 26254.01649162 .00004667 00000-0 26909-3 0 9991 2 60242 61.9763 261.5226 0027097 148.6914 211.5803 15.13579568119449 ROBUSTA-3A 1 60243U 24128J 26253.37005037 .00003973 00000-0 23655-3 0 9991 2 60243 61.9844 266.7716 0029181 145.5407 214.7588 15.12676377119305 CatSat 1 60246U 24125J 26254.04832380 .00092689 00000-0 73612-3 0 9995 2 60246 97.1957 108.3516 0014946 212.0598 147.9758 15.70824236120814 AO-123 1 61781U 24199AY 26254.27501430 .00006093 00000-0 17122-3 0 9993 2 61781 97.2854 122.1756 0013553 7.6026 352.5422 15.36797506147141 LASARsat 1 62391U 24247Q 26252.13773078 .00044343 00000-0 73022-3 0 9998 2 62391 44.9723 148.6226 0008259 164.8391 195.2750 15.51644049 96336 CroCube 1 62394U 24247T 26254.06680706 .00040936 00000-0 60575-3 0 9993 2 62394 44.9695 133.3082 0009251 188.0193 172.0553 15.54622235 96687 JINJUSat 1B 1 63210U 25052A 26254.14316172 .00013303 00000-0 38183-3 0 9996 2 63210 97.3878 151.1120 0004822 116.9838 243.1899 15.35972272 83289 NUSHSAT 1 1 63211U 25052B 26254.16006522 .00017389 00000-0 44991-3 0 9996 2 63211 97.3853 152.0322 0004553 117.6999 242.4709 15.39133903 83358 TEVEL2-4 1 63213U 25052D 26254.17322494 .00015168 00000-0 41528-3 0 9994 2 63213 97.3773 150.8244 0003852 126.4958 233.6642 15.37420093 83315 TEVEL2-5 1 63214U 25052E 26253.68392780 .00014527 00000-0 40092-3 0 9998 2 63214 97.3774 150.2541 0003706 128.0683 232.0897 15.37181739 83239 TEVEL2-6 1 63215U 25052F 26253.69817152 .00014618 00000-0 40380-3 0 9996 2 63215 97.3770 150.2528 0003641 128.4915 231.6657 15.37151529 83234 TEVEL2-1 1 63217U 25052H 26253.69461802 .00013776 00000-0 38859-3 0 9997 2 63217 97.3753 149.7655 0003436 140.5489 219.6006 15.36511928 83218 TEVEL2-3 1 63218U 25052J 26254.14143880 .00014293 00000-0 40192-3 0 9990 2 63218 97.3753 150.2485 0003206 135.4807 224.6695 15.36601418 83280 TEVEL2-2 1 63219U 25052K 26253.69427211 .00013752 00000-0 38776-3 0 9997 2 63219 97.3752 149.7687 0003425 140.3730 219.7765 15.36525253 83218 TEVEL2-9 1 63237U 25052AD 26254.04898991 .00012936 00000-0 39121-3 0 9992 2 63237 97.3808 149.2997 0005714 174.3081 185.8228 15.34325126 83186 TEVEL2-7 1 63238U 25052AE 26253.65156066 .00012302 00000-0 37660-3 0 9992 2 63238 97.3811 148.7791 0005584 177.5385 182.5886 15.33953445 83111 TEVEL2-8 1 63239U 25052AF 26254.18240353 .00012352 00000-0 37806-3 0 9992 2 63239 97.3814 149.2831 0005693 175.3030 184.8268 15.33957332 83196 SPIRONE 1 66657U 25274H 26254.26933619 .00001490 00000-0 14555-3 0 9995 2 66657 97.7476 182.3436 0013619 87.8752 272.4027 14.93830776 43072 K-HERO 1 66660U 25274L 26254.04973588 .00001004 00000-0 98802-4 0 9993 2 66660 97.7484 182.3502 0015470 92.1163 268.1829 14.94226495 43059 SNUGLITE-III DURI 1 66661U 25274M 26254.23707460 .00001211 00000-0 11802-3 0 9993 2 66661 97.7482 182.5556 0016121 92.4573 267.8493 14.94237127 43081 SAKHACUBE-CHOLBON 1 67290U 25313AU 26254.14931319 .00007339 00000-0 28555-3 0 9998 2 67290 97.3872 328.1616 0010134 59.1384 301.0850 15.26264972 39089 RS95S (QMR-KWT-2) 1 67291U 25313AV 26254.17150557 .00010413 00000-0 37968-3 0 9994 2 67291 97.3869 328.5789 0009464 57.3002 302.9149 15.28310787 39115 Ten-Koh2 1 68261U 25241B 26254.09502625 .00003775 00000-0 16335-3 0 9998 2 68261 51.6618 270.4618 0008021 68.3373 291.8459 15.24836677 28019 JACK-002 1 68417U 26067B 26253.42082078 .00005418 00000-0 25246-3 0 9996 2 68417 97.4654 211.0533 0002322 34.8678 325.2709 15.20311297 24895 DISCO 2 1 68431U 26067R 26253.45373196 .00005890 00000-0 27496-3 0 9992 2 68431 97.4686 211.0849 0004057 72.3944 287.7734 15.20203274 24891 HADES-SA (SpinnyONE) 1 68446U 26067AG 26253.38469220 .00015215 00000-0 67404-3 0 9999 2 68446 97.4477 210.6033 0008369 125.1666 235.0355 15.21693897 24871 PARUS-6U1 1 68456U 26067AS 26253.42519061 .00004587 00000-0 22693-3 0 9995 2 68456 97.4640 210.5643 0007157 118.1724 242.0233 15.18289533 24867 SAL-E 1 68458U 26067AU 26254.12321341 .00005150 00000-0 25040-3 0 9993 2 68458 97.4564 211.1546 0007367 122.8281 237.3664 15.18833005 24972 FSI-SAT 2 1 68792U 26088A 26253.40164031 .00003209 00000-0 21554-3 0 9997 2 68792 97.5187 40.6167 0014481 169.9637 190.1883 15.07410716 21122 OrigamiSat 2 1 68795U 26088D 26254.19923192 .00009043 00000-0 55164-3 0 9994 2 68795 97.5177 41.8500 0015538 140.1527 220.0847 15.10458210 21275 ARICA 2 1 68796U 26088E 26253.98335097 .00002846 00000-0 18346-3 0 9997 2 68796 97.5177 41.5102 0016389 140.4733 219.7694 15.09009314 21234 WASEDA-SAT-ZERO-II 1 68797U 26088F 26254.15867599 .00005247 00000-0 33053-3 0 9995 2 68797 97.5174 41.7303 0016105 139.8984 220.3437 15.09475469 21267 MANGARO-II-Piscus 1 68798U 26088G 26254.21627051 .00003171 00000-0 20202-3 0 9996 2 68798 97.5190 41.8273 0019754 142.8857 217.3742 15.09308003 21274 CO-128 1 69912U 26156AV 26254.18344203 .00001021 00000-0 10902-3 0 9990 2 69912 97.7480 153.4614 0001120 311.6836 48.4286 14.90934940 9813 MARINA 1 69920U 26156BD 26254.19850925 .00001773 00000-0 17968-3 0 9996 2 69920 97.7448 153.5706 0006165 304.1341 55.9293 14.92150718 9828 IO-86 1 40931U 26199.45381863 .00000000 00000-0 77536-4 0 07 2 40931 6.0006 322.6653 0012733 338.8432 273.6875 14.79294310 03 LILIUM-4 1 71922C 26067AC 26089.50133053 -.00014632 00000 0 -74472-3 0 04 2 71922 97.4497 49.1617 0004341 5.9603 355.7042 15.16896692 16